EW5980 Weather Reports


time (UTC)temp
F
wind
direction
speed
knots
gust
knots
rain 1hr
in
rain 24hr
in
rain mn
in
humidity
%
barometer
mb
20260509220045 76 0.0 0.0 0.00 0.00 0.00 66 1011.0
20260509214541 77 0.0 0.0 0.00 0.00 0.00 66 1011.1
20260509213100 77 0.0 0.0 0.00 0.00 0.00 64 1011.0
20260509211608 77 0.0 0.0 0.00 0.00 0.00 61 1010.9
20260509210041 77 0.0 0.0 0.00 0.00 0.00 66 1011.0
20260509204556 77 0.0 0.0 0.00 0.00 0.00 67 1010.9
20260509203055 76 0.0 0.0 0.00 0.00 0.00 65 1011.3
20260509201543 76 0.0 0.0 0.00 0.00 0.00 63 1011.4
20260509200043 76 0.0 0.0 0.00 0.00 0.00 62 1011.5
20260509194544 76 0.0 0.0 0.00 0.00 0.00 59 1011.8
20260509193041 75 0.0 0.0 0.00 0.00 0.00 55 1011.9
20260509191540 74 0.0 0.0 0.00 0.00 0.00 46 1012.0
20260509190047 74 0.0 0.0 0.00 0.00 0.00 45 1011.9
20260509184546 74 0.0 0.0 0.00 0.00 0.00 44 1011.7
20260509183043 73 0.0 0.0 0.00 0.00 0.00 31 1011.8
20260509181540 73 0.0 0.0 0.00 0.00 0.00 11 1012.0
20260509180048 71 0.0 0.0 0.00 0.00 0.00 1 1012.2
20260509174550 70 0.0 0.0 0.00 0.00 0.00 100 1012.3
20260509173043 69 0.0 0.0 0.00 0.00 0.00 100 1012.4
20260509171542 68 0.0 0.0 0.00 0.00 0.00 100 1012.5
20260509170041 68 0.0 0.0 0.00 0.00 0.00 100 1013.1
20260509164547 67 0.0 0.0 0.00 0.00 0.00 100 1013.3
20260509163054 67 0.0 0.0 0.00 0.00 0.00 100 1013.3
20260509161542 66 0.0 0.0 0.00 0.00 0.00 100 1013.4
20260509160042 66 0.0 0.0 0.00 0.00 0.00 100 1012.9
20260509154541 66 0.0 0.0 0.00 0.00 0.00 100 1013.0
20260509153050 65 0.0 0.0 0.00 0.00 0.00 100 1013.3
20260509151545 65 0.0 0.0 0.00 0.00 0.00 100 1013.2
20260509150044 65 0.0 0.0 0.00 0.00 0.00 100 1013.0
20260509144543 65 0.0 0.0 0.00 0.00 0.00 100 1012.9
20260509143042 65 0.0 0.0 0.00 0.00 0.00 100 1012.9
20260509141543 65 0.0 0.0 0.00 0.00 0.00 100 1012.5
20260509140050 65 0.0 0.0 0.00 0.00 0.00 100 1012.2
20260509134551 65 0.0 0.0 0.00 0.00 0.00 100 1012.2
20260509133054 65 0.0 0.0 0.00 0.00 0.00 100 1012.0
20260509131546 63 0.0 0.0 0.00 0.00 0.00 100 1011.8
20260509130044 63 0.0 0.0 0.00 0.00 0.00 100 1011.9
20260509124539 63 0.0 0.0 0.00 0.00 0.00 100 1011.7
20260509123047 63 0.0 0.0 0.00 0.00 0.00 100 1011.4
20260509121542 63 0.0 0.0 0.00 0.00 0.00 100 1010.4
20260509120041 62 0.0 0.0 0.00 0.00 0.00 100 1008.2
20260509114550 62 0.0 0.0 0.00 0.00 0.00 100 1009.6
20260509113040 62 0.0 0.0 0.00 0.00 0.00 100 1011.3
20260509111544 62 0.0 0.0 0.00 0.00 0.00 100 1011.8
20260509110048 62 0.0 0.0 0.00 0.00 0.00 100 1012.0
20260509104542 62 0.0 0.0 0.00 0.00 0.00 100 1011.0
20260509103042 63 0.0 0.0 0.00 0.00 0.00 100 1010.5
20260509101541 63 0.0 0.0 0.00 0.00 0.00 100 1011.7
20260509100040 63 0.0 0.0 0.00 0.00 0.00 100 1010.9
20260509094547 63 0.0 0.0 0.00 0.00 0.00 100 1010.6
20260509093045 64 0.0 0.0 0.00 0.00 0.00 100 1010.7
20260509091541 64 0.0 0.0 0.00 0.00 0.00 100 1012.3
20260509090039 64 0.0 0.0 0.00 0.00 0.00 100 1011.0
20260509084546 64 0.0 0.0 0.00 0.00 0.00 100 1010.9
20260509083048 64 0.0 0.0 0.00 0.00 0.00 100 1011.0
20260509081542 64 0.0 0.0 0.00 0.00 0.00 100 1011.4
20260509074539 64 0.0 0.0 0.00 0.00 0.00 100 1011.6
20260509073137 64 0.0 0.0 0.00 0.00 0.00 100 1011.6
20260509071545 64 0.0 0.0 0.00 0.00 0.00 100 1011.8
20260509070045 64 0.0 0.0 0.00 0.00 0.00 100 1011.7
20260509064547 64 0.0 0.0 0.00 0.00 0.00 100 1011.9
20260509063041 64 0.0 0.0 0.00 0.00 0.00 100 1011.8
20260509061549 64 0.0 0.0 0.00 0.00 0.00 100 1011.9
20260509060047 64 0.0 0.0 0.00 0.00 0.00 100 1012.0
20260509054548 64 0.0 0.0 0.00 0.00 0.00 100 1012.1
20260509053051 64 0.0 0.0 0.00 0.00 0.00 100 1012.6
20260509051550 64 0.0 0.0 0.00 0.00 0.00 100 1012.6
20260509050040 64 0.0 0.0 0.00 0.00 0.00 100 1012.5
20260509044546 64 0.0 0.0 0.00 0.00 0.00 100 1012.3
20260509043055 64 0.0 0.0 0.00 0.00 0.00 100 1012.0
20260509041544 64 0.0 0.0 0.00 0.00 0.00 100 1011.9
20260509040047 64 0.0 0.0 0.00 0.00 0.00 100 1011.8
20260509034540 64 0.0 0.0 0.00 0.00 0.00 1 1011.6
20260509033046 64 0.0 0.0 0.00 0.00 0.00 3 1011.6
20260509031547 64 0.0 0.0 0.00 0.00 0.00 5 1011.9
20260509030045 64 0.0 0.0 0.00 0.00 0.00 6 1012.0
20260509024541 64 0.0 0.0 0.00 0.00 0.00 8 1011.9
20260509023042 65 0.0 0.0 0.00 0.00 0.00 10 1011.6
20260509021548 65 0.0 0.0 0.00 0.00 0.00 12 1011.9
20260509020045 65 0.0 0.0 0.00 0.00 0.00 14 1012.0
20260509014559 65 0.0 0.0 0.00 0.00 0.00 17 1011.7
20260509013057 65 0.0 0.0 0.00 0.00 0.00 19 1011.6
20260509011542 65 0.0 0.0 0.00 0.00 0.00 22 1011.3
20260509010043 65 0.0 0.0 0.00 0.00 0.00 23 1011.7
20260509004601 65 0.0 0.0 0.00 0.00 0.00 26 1012.1
20260509003049 66 0.0 0.0 0.00 0.00 0.00 29 1012.4
20260509001543 66 0.0 0.0 0.00 0.00 0.00 32 1012.5
20260509000045 66 0.0 0.0 0.00 0.00 0.00 36 1012.3
20260508234545 66 0.0 0.0 0.00 0.00 0.00 40 1012.1
20260508233040 66 0.0 0.0 0.00 0.00 0.00 45 1011.9
20260508231540 67 0.0 0.0 0.00 0.00 0.00 49 1012.4
20260508230052 67 0.0 0.0 0.00 0.00 0.00 54 1012.2
20260508224543 67 0.0 0.0 0.00 0.00 0.00 57 1012.2
20260508223041 67 0.0 0.0 0.00 0.00 0.00 59 1012.3
20260508221544 67 0.0 0.0 0.00 0.00 0.00 60 1012.2